[[{"header":{"parameterUnit":"m.s-1","parameterCategory":1,"la1":30.2992,"la2":30.254,"lo1":-89.0895,"lo2":-89.0443,"dy":0.0025,"dx":0.0025,"nx":19,"ny":19,"refTime":"2026-03-24T03:00:00:Z","depth":0,"parameterNumber":2,"parameterNumberName":"U-component_of_WINDS"},"data":[0,0,0,-0.3678,-0.3677,-0.3602,-0.3601,-0.353,-0.3529,0,0,0,0,0,0,0,0,0,0,0,-0.3716,-0.3716,-0.3678,-0.3677,-0.3602,-0.3601,-0.353,-0.3529,0,0,0,0,0,0,0,0,0,0,0,-0.3716,-0.3716,-0.3716,-0.3677,-0.3602,-0.3601,-0.353,-0.3578,0,0,0,0,0,0,0,0,0,0,-0.3647,-0.3696,-0.3716,-0.3716,-0.3676,-0.3602,-0.3601,-0.358,-0.3575,-0.3575,0,-0.3578,0,-0.3553,-0.3526,-0.3526,0,0,0,-0.3666,-0.37,-0.3666,-0.3716,-0.3676,-0.3602,-0.3632,-0.3577,-0.3571,-0.3568,-0.3577,-0.3574,-0.3552,-0.3526,-0.3526,-0.3562,-0.3563,0,0,-0.367,-0.371,-0.367,-0.3663,-0.3677,-0.3635,-0.363,-0.3573,-0.3585,-0.3577,-0.3571,-0.355,-0.3526,-0.3525,-0.3561,-0.3562,0,0,0,-0.3689,-0.3714,-0.368,-0.3667,-0.3652,-0.3633,-0.3628,-0.3588,-0.3573,-0.357,-0.355,-0.3525,-0.3525,-0.356,-0.3561,-0.3637,0,0,0,-0.3691,-0.3725,-0.3683,-0.3707,-0.3653,-0.3619,-0.3644,-0.3578,-0.357,-0.355,-0.3525,-0.3524,-0.3559,-0.3561,-0.3633,-0.3666,0,0,0,-0.3715,-0.3727,-0.3722,-0.3709,-0.3678,-0.3619,-0.3601,-0.3575,-0.3558,-0.3526,-0.3524,-0.3559,-0.3561,-0.3629,-0.366,-0.3689,0,0,0,-0.3753,-0.3788,-0.3724,-0.3755,-0.3679,-0.3665,-0.3601,-0.3588,-0.357,-0.3525,-0.356,-0.3561,-0.3628,-0.3657,-0.3686,-0.3722,-0.374,0,0,-0.382,-0.3798,-0.3813,-0.3753,-0.3762,-0.3673,-0.3692,-0.3637,-0.3596,-0.3576,-0.3576,-0.3634,-0.366,-0.3688,-0.3825,-0.3841,0,0,0,-0.3849,-0.3861,-0.3854,-0.3839,-0.3797,-0.3765,-0.3703,-0.3682,-0.3663,-0.3594,-0.3649,-0.3664,-0.3679,-0.3694,-0.3707,-0.3719,-0.357,-0.3569,-0.3569,-0.4003,-0.395,-0.3973,-0.3911,-0.3897,-0.3833,-0.3817,-0.3778,-0.3728,-0.3742,-0.3736,-0.3826,-0.3846,-0.3855,-0.3868,-0.3749,-0.3749,-0.375,-0.375,-0.41,-0.4109,-0.4042,-0.404,-0.3984,-0.3982,-0.3921,-0.3886,-0.3876,-0.3826,-0.3836,-0.3788,-0.3873,-0.3882,-0.3755,-0.3754,-0.3753,-0.3753,-0.3752,-0.4197,-0.4193,-0.4167,-0.414,-0.4125,-0.4061,-0.4055,-0.4003,-0.3954,-0.3965,-0.3954,-0.3953,-0.3947,-0.3963,-0.3963,-0.3963,-0.3964,-0.3964,-0.3964,-0.431,-0.4278,-0.428,-0.424,-0.4224,-0.4196,-0.4131,-0.4114,-0.4082,-0.4045,-0.4045,-0.3995,-0.389,-0.3867,-0.3969,-0.3968,-0.3967,-0.3967,-0.3967,-0.4431,-0.4395,-0.4398,-0.4383,-0.4331,-0.4322,-0.4255,-0.4224,-0.4202,-0.4202,-0.4149,-0.4079,-0.4053,-0.4042,-0.4023,-0.4159,-0.4159,-0.4159,-0.4159,-0.4516,-0.4496,-0.4489,-0.4467,-0.4439,-0.438,-0.4386,-0.4337,-0.428,-0.4263,-0.4235,-0.4204,-0.4195,-0.4174,-0.4161,-0.4142,-0.4305,-0.4305,-0.4305,-0.4588,-0.4564,-0.458,-0.4524,-0.448,-0.4444,-0.4449,-0.4428,-0.4355,-0.431,-0.425,-0.4244,-0.4192,-0.4177,-0.4134,-0.4114,-0.4078,0,0]},{"header":{"parameterUnit":"m.s-1","parameterCategory":1,"la1":30.2992,"la2":30.254,"lo1":-89.0895,"lo2":-89.0443,"dy":0.0025,"dx":0.0025,"nx":19,"ny":19,"refTime":"2026-03-24T03:00:00:Z","depth":0,"parameterNumber":3,"parameterNumberName":"V-component_of_WINDS"},"data":[0,0,0,0.301,0.3008,0.2939,0.2938,0.2848,0.2847,0,0,0,0,0,0,0,0,0,0,0,0.303,0.3029,0.301,0.3008,0.2939,0.2938,0.2848,0.2847,0,0,0,0,0,0,0,0,0,0,0,0.303,0.3029,0.3029,0.3008,0.2939,0.2938,0.2848,0.2901,0,0,0,0,0,0,0,0,0,0,0.2969,0.2987,0.3029,0.3029,0.3007,0.2939,0.2938,0.2904,0.2898,0.2879,0,0.2863,0,0.2853,0.2841,0.2841,0,0,0,0.3008,0.2992,0.2974,0.3028,0.3007,0.2939,0.297,0.29,0.2894,0.2871,0.2861,0.2858,0.2852,0.2841,0.284,0.273,0.2729,0,0,0.3012,0.3017,0.2978,0.2969,0.2981,0.2972,0.2968,0.2896,0.2886,0.2861,0.2856,0.285,0.284,0.2839,0.273,0.273,0,0,0,0.3023,0.302,0.3003,0.2973,0.2961,0.297,0.2965,0.2889,0.2883,0.2855,0.2849,0.2839,0.2838,0.2731,0.273,0.2707,0,0,0,0.3025,0.3026,0.3005,0.3007,0.2962,0.2924,0.2959,0.2888,0.288,0.285,0.2839,0.2837,0.2731,0.273,0.2709,0.2694,0,0,0,0.3034,0.3027,0.3017,0.3008,0.2978,0.2925,0.2915,0.2886,0.2877,0.2841,0.2837,0.2732,0.2731,0.271,0.2697,0.2664,0,0,0,0.3046,0.2999,0.3017,0.2963,0.2979,0.2912,0.2916,0.2866,0.2833,0.2839,0.2731,0.273,0.2711,0.2699,0.2666,0.2635,0.2624,0,0,0.299,0.2993,0.296,0.2974,0.2905,0.2923,0.285,0.2816,0.2808,0.2756,0.2753,0.2708,0.2697,0.2664,0.2563,0.2554,0,0,0,0.2944,0.292,0.2901,0.2869,0.2842,0.2815,0.2791,0.2778,0.2733,0.2783,0.2689,0.2682,0.2663,0.2647,0.264,0.2621,0.2724,0.2724,0.2724,0.287,0.2863,0.2807,0.2791,0.276,0.2735,0.2708,0.2686,0.2689,0.2666,0.265,0.2589,0.2572,0.2566,0.2546,0.2636,0.2636,0.2635,0.2635,0.2785,0.2748,0.2752,0.2699,0.269,0.2646,0.262,0.2622,0.2579,0.2601,0.2584,0.2606,0.2556,0.2538,0.2634,0.2634,0.2634,0.2634,0.2634,0.2733,0.2714,0.2699,0.265,0.2614,0.26,0.2556,0.2552,0.2547,0.253,0.2509,0.251,0.2506,0.2521,0.2521,0.2521,0.252,0.252,0.252,0.2684,0.2667,0.2632,0.2597,0.2575,0.2545,0.2519,0.2496,0.247,0.247,0.2469,0.2471,0.2554,0.2572,0.2517,0.2517,0.2518,0.2518,0.2518,0.2594,0.2613,0.2558,0.2535,0.2493,0.2455,0.2451,0.2405,0.2386,0.2365,0.2371,0.2434,0.2436,0.2442,0.2457,0.2375,0.2375,0.2375,0.2375,0.2547,0.2549,0.2489,0.2453,0.2418,0.2407,0.2342,0.2321,0.2303,0.229,0.2302,0.2323,0.2329,0.2328,0.2336,0.235,0.2242,0.2242,0.2242,0.249,0.2487,0.2433,0.2415,0.2381,0.2352,0.229,0.2248,0.2231,0.2236,0.2279,0.2284,0.2318,0.233,0.2333,0.2347,0.2372,0,0]}]]